Location: Newark
(35.5300°N, 14.3000°E)
Time: 09:28:56
(UTC+00:00)

Explorer 11/Cluster Stage 4 - Visible Passes

Search period start: 14 November 2019 00:00
Search period end: 24 November 2019 00:00
Orbit: 467 x 1259 km, 28.8° (Epoch: 13 November)

Date Brightness Start Highest point End Pass type
(mag) Time Alt. Az. Time Alt. Az. Time Alt. Az.
14 Nov 9.2 02:34:54 17° SSE 02:34:54 17° SSE 02:36:48 10° SSE visible
15 Nov 9.5 02:24:59 12° SSE 02:24:59 12° SSE 02:25:40 10° SSE visible
15 Nov 9.2 18:49:43 10° SSW 18:50:11 12° SSW 18:50:11 12° SSW visible
16 Nov 8.9 18:38:49 10° SSW 18:40:14 15° S 18:40:14 15° S visible
17 Nov 8.6 18:27:59 10° SSW 18:30:15 19° S 18:30:15 19° S visible
18 Nov 8.3 18:17:13 10° SSW 18:20:13 23° S 18:20:13 23° S visible
19 Nov 8.0 18:06:30 10° SW 18:10:11 27° S 18:10:11 27° S visible
20 Nov 7.7 17:55:50 10° SW 18:00:08 29° SSE 18:00:08 29° SSE visible
21 Nov 7.6 17:45:13 10° SW 17:49:28 30° SSE 17:50:03 29° SSE visible
22 Nov 7.5 17:34:37 10° SW 17:38:45 31° SSE 17:39:57 28° SE visible
22 Nov 9.3 19:21:51 10° WSW 19:22:06 11° WSW 19:22:06 11° WSW visible
23 Nov 7.4 17:24:04 10° SW 17:28:03 32° SSE 17:29:52 25° SE visible
23 Nov 9.1 19:11:22 10° WSW 19:12:00 14° WSW 19:12:00 14° WSW visible
